Details From LSME - Emmen
To LIBD - Bari Palese Macchie
Flight Number -
Tags Generated
Created
Modified
Stats Distance 510 nm / 944 km
Max Altitude 0 ft / 0 m
Waypoints 4
Social Downloads 2
Likes 0
Share VATSIM

Download

Looking for another format? Having issues loading an existing format? Contact us
Advertisement - Login to hide

Notes

Generated

Route

LSME LANLI R2111 LIBD

ID Type Via Altitude Latitude Longitude Leg Dist Tot Dist Heading (true) Name
O LSME APT - 0 ft / 0 m 47.08345˚ 8.29507˚ - 0 nm - -
LANLI FIX - 0 ft / 0 m 43.95722˚ 13.18056˚ 278 nm 278 nm 131° / 134° -
R2111 FIX - 0 ft / 0 m 41.13463˚ 16.74687˚ 231 nm 509 nm 136° / 138° -
O LIBD APT - 0 ft / 0 m 41.13463˚ 16.74687˚ 0 nm 509 nm 180° / 180° -

Altitude Profile

Advertisement - Login to hide

Weather


0- 5 10 15 20 25 30 35+ Temperature / ° C

Clouds and Precipitation
Forecast for 2018-05-22 18:00 UTC. Updated an hour ago

Ground ~20,000 ft ~40,000 ft Winds

LSME

Details ICAO LSME
Name Emmen
Region Switzerland
Timezone Europe/Zurich (UTC+2.0)
Stats Elevation 1,400 ft / 427 m (AMSL)
Location 47.092369° 8.305118°
Runways 1
Magnetic Variation 2.336° E

METAR

LSME 221750Z AUTO 33009KT 290V010 9999NDV -RA FEW026 BKN051 OVC062 18/13 Q1012 RMK

Decode

TAF

Not found

Departure Runways

ID Width Length Bearing (true) Bearing (mag) Surface Threshold Offset Overrun Length
04 130 ft / 40 m 8,202 ft / 2,500 m 37.49° 35.15° Asphalt 363 ft / 111 m 810 ft / 247 m
22 130 ft / 40 m 8,202 ft / 2,500 m 217.51° 215.17° Asphalt 596 ft / 182 m 747 ft / 228 m

LIBD

Details ICAO LIBD (BRI)
Name Bari Palese Macchie
Region Italy
Timezone Europe/Rome (UTC+2.0)
Stats Elevation 177 ft / 54 m (AMSL)
Location 41.137865° 16.758318°
Runways 1
Magnetic Variation 3.782° E

METAR

LIBD 221750Z 10006KT 9999 FEW040 21/18 Q1014

Decode

TAF

TAF LIBD 221700Z 2218/2318 VRB06KT 9999 FEW030 TEMPO 2312/2318 TSRA

Decode

Destination Runways

ID Width Length Bearing (true) Bearing (mag) Surface Threshold Offset Overrun Length
07 148 ft / 45 m 9,262 ft / 2,823 m 69.39° 65.61° Asphalt 1,257 ft / 383 m 0 ft / 0 m
25 148 ft / 45 m 9,262 ft / 2,823 m 249.42° 245.64° Asphalt 0 ft / 0 m 194 ft / 59 m

Approach Navaids

Runway Type Ident Frequency Range Bearing (true) Bearing (mag) Slope Elevation
07 Localiser BAP 111.35 MHz 18 nm / 33 km 69.25° 65.47° - 177 ft / 54 m (AMSL)
07 Glidescope BAP 111.35 MHz 10 nm / 19 km 69.25° 65.47° 3.32° 177 ft / 54 m (AMSL)
07 DME BAP 111.35 MHz 18 nm / 33 km - - - 183 ft / 56 m (AMSL)